{"data":{"norad_id":66494,"epoch":"2026-05-24T20:37:05.623968Z","epoch_age_seconds":90772,"freshness":"FRESH","line1":"1 66494U 25263K   26144.85909287  .00026814  00000+0  97999-3 0  9998","line2":"2 66494  43.0004 280.9186 0001742 270.5318  89.5334 15.27592428 30545","mean_motion":15.27592428,"eccentricity":0.0001742,"inclination_deg":43.0004,"raan_deg":280.9186,"arg_perigee_deg":270.5318,"mean_anomaly_deg":89.5334,"bstar":0.00097999,"rev_number":3054,"period_min":94.265981789745,"perigee_km":481.81667025369,"apogee_km":484.20709452432,"semimajor_km":6861.148882389,"source":"CELESTRAK","updated_at":"2026-05-25T13:38:21.243600Z"}}